Previsão horária em Abaturovo

Hoje, 30 Setembro, Quarta-feira

Tempo Temperatura Precipitação Vento Pressão Humidade
00:00 +10°C° 0 mm 2 m/s 756 mmHg 66%
01:00 +10°C° 0 mm 2 m/s 756 mmHg 67%
02:00 +10°C° 0 mm 2 m/s 756 mmHg 67%
03:00 +10°C° 0 mm 2 m/s 755 mmHg 67%
04:00 +10°C° 0 mm 2 m/s 755 mmHg 67%
05:00 +10°C° 0 mm 2 m/s 755 mmHg 67%
06:00 +10°C° 0 mm 3 m/s 755 mmHg 66%
07:00 +11°C° 0 mm 3 m/s 755 mmHg 65%
08:00 +11°C° 0 mm 3 m/s 756 mmHg 63%
09:00 +13°C° 0 mm 3 m/s 756 mmHg 59%
10:00 +14°C° 0 mm 3 m/s 756 mmHg 54%
11:00 +17°C° 0 mm 3 m/s 755 mmHg 50%
12:00 +17°C° 0 mm 3 m/s 755 mmHg 49%
13:00 +18°C° 0 mm 3 m/s 755 mmHg 47%
14:00 +18°C° 0 mm 4 m/s 755 mmHg 46%
15:00 +17°C° 0 mm 3 m/s 755 mmHg 52%
16:00 +16°C° 0 mm 3 m/s 756 mmHg 58%
17:00 +14°C° 0 mm 2 m/s 756 mmHg 64%
18:00 +14°C° 0 mm 2 m/s 756 mmHg 65%
19:00 +12°C° 0 mm 3 m/s 756 mmHg 66%
20:00 +12°C° 0 mm 3 m/s 756 mmHg 67%
21:00 +11°C° 0 mm 3 m/s 757 mmHg 70%
22:00 +12°C° 0 mm 2 m/s 757 mmHg 72%
23:00 +10°C° 0 mm 2 m/s 757 mmHg 75%

Amanhã, 1 Outubro, Quinta-feira

Tempo Temperatura Precipitação Vento Pressão Humidade
00:00 +10°C° 0 mm 2 m/s 757 mmHg 76%
01:00 +10°C° 0 mm 2 m/s 757 mmHg 78%
02:00 +9°C° 0 mm 2 m/s 757 mmHg 79%
03:00 +9°C° 0 mm 2 m/s 757 mmHg 80%
04:00 +9°C° 0 mm 2 m/s 757 mmHg 81%
05:00 +8°C° 0 mm 2 m/s 757 mmHg 82%
06:00 +9°C° 0 mm 2 m/s 757 mmHg 77%
07:00 +12°C° 0 mm 2 m/s 757 mmHg 72%
08:00 +12°C° 0 mm 3 m/s 757 mmHg 68%
09:00 +13°C° 0 mm 3 m/s 757 mmHg 63%
10:00 +16°C° 0 mm 3 m/s 757 mmHg 58%
11:00 +18°C° 0 mm 3 m/s 757 mmHg 53%
12:00 +18°C° 0 mm 3 m/s 757 mmHg 50%
13:00 +19°C° 0 mm 4 m/s 757 mmHg 48%
14:00 +19°C° 0 mm 4 m/s 757 mmHg 45%
15:00 +17°C° 0 mm 3 m/s 757 mmHg 51%
16:00 +16°C° 0 mm 3 m/s 757 mmHg 57%
17:00 +14°C° 0 mm 2 m/s 757 mmHg 63%
18:00 +13°C° 0 mm 2 m/s 757 mmHg 65%
19:00 +12°C° 0 mm 2 m/s 757 mmHg 66%
20:00 +10°C° 0 mm 2 m/s 758 mmHg 68%
21:00 +10°C° 0 mm 2 m/s 758 mmHg 69%
22:00 +10°C° 0 mm 2 m/s 758 mmHg 70%
23:00 +9°C° 0 mm 2 m/s 758 mmHg 71%

Depois de amanhã, 2 Outubro, Sexta-feira

Tempo Temperatura Precipitação Vento Pressão Humidade
00:00 +9°C° 0 mm 2 m/s 758 mmHg 72%
01:00 +9°C° 0 mm 2 m/s 758 mmHg 73%
02:00 +8°C° 0 mm 2 m/s 758 mmHg 74%
03:00 +8°C° 0 mm 2 m/s 758 mmHg 74%
04:00 +8°C° 0 mm 2 m/s 758 mmHg 74%
05:00 +8°C° 0 mm 2 m/s 758 mmHg 75%
06:00 +9°C° 0 mm 3 m/s 758 mmHg 71%
07:00 +10°C° 0 mm 3 m/s 758 mmHg 67%
08:00 +11°C° 0 mm 3 m/s 758 mmHg 63%
09:00 +13°C° 0 mm 3 m/s 758 mmHg 59%
10:00 +14°C° 0 mm 3 m/s 758 mmHg 56%
11:00 +17°C° 0 mm 3 m/s 758 mmHg 53%
12:00 +17°C° 0 mm 3 m/s 758 mmHg 51%
13:00 +18°C° 0 mm 3 m/s 758 mmHg 50%
14:00 +19°C° 0 mm 3 m/s 758 mmHg 49%
15:00 +17°C° 0 mm 3 m/s 758 mmHg 56%
16:00 +16°C° 0 mm 2 m/s 758 mmHg 63%
17:00 +14°C° 0 mm 2 m/s 758 mmHg 71%
18:00 +14°C° 0 mm 2 m/s 758 mmHg 74%
19:00 +13°C° 0 mm 2 m/s 758 mmHg 77%
20:00 +13°C° 0 mm 2 m/s 759 mmHg 80%
21:00 +12°C° 0 mm 2 m/s 759 mmHg 82%
22:00 +12°C° 0 mm 2 m/s 758 mmHg 83%
23:00 +12°C° 0 mm 2 m/s 758 mmHg 84%

3 Outubro, Sábado

Tempo Temperatura Precipitação Vento Pressão Humidade
00:00 +12°C° 0 mm 2 m/s 758 mmHg 84%
01:00 +12°C° 0 mm 2 m/s 758 mmHg 85%
02:00 +10°C° 0 mm 2 m/s 758 mmHg 85%
03:00 +10°C° 0 mm 2 m/s 758 mmHg 85%
04:00 +10°C° 0 mm 2 m/s 758 mmHg 85%
05:00 +10°C° 0 mm 2 m/s 758 mmHg 86%
06:00 +11°C° 0 mm 3 m/s 758 mmHg 82%
07:00 +11°C° 0 mm 3 m/s 758 mmHg 78%
08:00 +12°C° 0 mm 3 m/s 758 mmHg 74%
09:00 +13°C° 0 mm 3 m/s 758 mmHg 70%
10:00 +14°C° 0 mm 3 m/s 758 mmHg 65%
11:00 +17°C° 0 mm 4 m/s 758 mmHg 61%
12:00 +17°C° 0 mm 4 m/s 758 mmHg 60%
13:00 +17°C° 0 mm 4 m/s 758 mmHg 59%
14:00 +18°C° 0 mm 3 m/s 758 mmHg 58%
15:00 +17°C° 0 mm 3 m/s 758 mmHg 63%
16:00 +14°C° 0 mm 3 m/s 758 mmHg 68%
17:00 +13°C° 0 mm 3 m/s 758 mmHg 73%
18:00 +13°C° 0 mm 3 m/s 758 mmHg 74%
19:00 +12°C° 0 mm 3 m/s 758 mmHg 76%
20:00 +12°C° 0 mm 3 m/s 759 mmHg 77%
21:00 +11°C° 0 mm 3 m/s 759 mmHg 78%
22:00 +12°C° 0 mm 2 m/s 759 mmHg 79%
23:00 +12°C° 0 mm 2 m/s 759 mmHg 80%

4 Outubro, Domingo

Tempo Temperatura Precipitação Vento Pressão Humidade
00:00 +10°C° 0 mm 2 m/s 759 mmHg 80%
01:00 +10°C° 0 mm 2 m/s 759 mmHg 80%
02:00 +10°C° 0 mm 2 m/s 759 mmHg 81%
03:00 +9°C° 0 mm 2 m/s 759 mmHg 82%
04:00 +9°C° 0 mm 2 m/s 759 mmHg 83%
05:00 +9°C° 0 mm 2 m/s 759 mmHg 84%
06:00 +10°C° 0 mm 2 m/s 759 mmHg 80%
07:00 +10°C° 0 mm 3 m/s 759 mmHg 76%
08:00 +11°C° 0 mm 3 m/s 759 mmHg 72%
09:00 +13°C° 0 mm 3 m/s 759 mmHg 66%
10:00 +14°C° 0 mm 3 m/s 759 mmHg 61%
11:00 +17°C° 0 mm 3 m/s 759 mmHg 56%
12:00 +17°C° 0 mm 3 m/s 759 mmHg 54%
13:00 +17°C° 0 mm 3 m/s 758 mmHg 53%
14:00 +18°C° 0 mm 3 m/s 758 mmHg 52%
15:00 +16°C° 0 mm 3 m/s 758 mmHg 59%
16:00 +14°C° 0 mm 3 m/s 758 mmHg 66%
17:00 +13°C° 0 mm 2 m/s 758 mmHg 72%
18:00 +13°C° 0 mm 2 m/s 758 mmHg 76%
19:00 +11°C° 0 mm 3 m/s 758 mmHg 80%
20:00 +10°C° 0 mm 3 m/s 758 mmHg 83%
21:00 +10°C° 0 mm 3 m/s 758 mmHg 86%
22:00 +10°C° 0 mm 3 m/s 758 mmHg 88%
23:00 +10°C° 0 mm 2 m/s 758 mmHg 91%

5 Outubro, Segunda-feira

Tempo Temperatura Precipitação Vento Pressão Humidade
00:00 +9°C° 0 mm 2 m/s 758 mmHg 92%
01:00 +9°C° 0 mm 2 m/s 758 mmHg 94%
02:00 +9°C° 0 mm 2 m/s 758 mmHg 95%
03:00 +8°C° 0 mm 2 m/s 758 mmHg 95%
04:00 +8°C° 0 mm 2 m/s 758 mmHg 96%
05:00 +8°C° 0 mm 2 m/s 758 mmHg 96%
06:00 +9°C° 0 mm 3 m/s 758 mmHg 92%
07:00 +10°C° 0 mm 3 m/s 757 mmHg 87%
08:00 +11°C° 0 mm 4 m/s 757 mmHg 83%
09:00 +12°C° 0 mm 4 m/s 757 mmHg 75%
10:00 +13°C° 0 mm 4 m/s 757 mmHg 66%
11:00 +15°C° 0 mm 4 m/s 757 mmHg 58%
12:00 +15°C° 0 mm 4 m/s 756 mmHg 56%
13:00 +15°C° 0 mm 4 m/s 756 mmHg 54%
14:00 +17°C° 0 mm 4 m/s 756 mmHg 52%
15:00 +14°C° 0 mm 4 m/s 756 mmHg 56%
16:00 +13°C° 0 mm 3 m/s 755 mmHg 60%
17:00 +12°C° 0 mm 3 m/s 755 mmHg 64%
18:00 +12°C° 0 mm 3 m/s 755 mmHg 63%
19:00 +12°C° 0 mm 3 m/s 755 mmHg 63%
20:00 +11°C° 0 mm 3 m/s 754 mmHg 62%
21:00 +11°C° 0 mm 3 m/s 754 mmHg 61%
22:00 +12°C° 0 mm 3 m/s 754 mmHg 60%
23:00 +12°C° 0 mm 3 m/s 754 mmHg 58%
Mostrar mais